Theta_e
345 343 341 330 315 313 307 313 321 318 319 326 329 327 323 325 320 311 339 341 344 343 345 347 351 351 350 347 349 348 347 346 347 347 347 347 347 347 347 347 347 347 349 348 349 351 350 351 351
338 341 333 322 309 304 306 316 316 321 324 328 328 326 323 319 330 332 334 342 343 343 343 343 349 347 346 346 346 345 344 343 344 344 344 345 346 345 345 346 346 347 346 345 344 346 346 347 347
336 338 321 314 312 305 307 317 319 323 327 327 324 329 327 323 331 332 339 342 342 342 344 343 346 344 342 344 342 341 340 340 339 339 338 338 337 336 338 337 338 339 340 341 342 342 343 344 346
332 326 322 312 308 314 315 319 323 323 326 328 326 321 331 338 334 338 342 342 341 341 339 343 343 342 340 341 340 338 338 338 337 337 336 335 333 333 333 332 332 331 331 331 333 335 336 338 340
332 323 310 307 310 317 320 323 324 321 323 324 325 320 324 335 340 340 339 341 335 334 335 336 342 341 339 337 337 336 335 334 336 334 332 332 330 330 330 330 329 329 329 329 329 330 331 332 333
319 318 306 303 311 317 320 324 325 323 324 323 321 321 321 337 336 338 339 335 335 333 333 334 339 339 337 334 334 333 333 332 333 330 330 329 328 329 328 330 330 329 330 330 329 329 329 329 330
318 310 305 311 312 313 318 324 320 321 321 323 326 318 322 331 336 339 336 332 332 331 331 329 330 333 334 332 331 331 331 331 329 328 328 329 330 329 330 331 332 331 330 330 331 331 331 331 331
322 313 312 311 311 310 318 324 327 326 323 329 329 318 318 329 337 337 330 327 324 325 327 326 326 327 326 326 332 331 330 330 328 328 329 330 329 331 329 333 332 333 332 331 333 333 333 333 333
322 311 305 307 310 313 322 321 329 330 324 328 329 327 329 334 337 325 319 317 316 321 320 322 322 320 325 324 325 332 333 331 330 330 329 319 315 318 319 327 330 332 332 331 331 331 331 331 331
315 307 310 315 315 314 320 323 325 324 323 321 321 329 333 333 326 319 315 313 313 315 315 314 314 314 321 323 314 315 323 322 321 320 315 313 313 318 320 323 328 328 328 327 327 327 328 323 314
316 309 318 319 321 321 320 322 326 322 318 320 318 319 328 318 317 314 313 311 312 315 317 317 318 318 316 316 312 315 319 319 319 317 314 312 313 312 312 312 313 313 321 314 315 313 313 313 312
315 319 318 321 324 322 319 324 323 324 323 325 319 320 320 315 313 313 313 313 316 316 317 319 319 319 316 314 314 313 313 314 316 316 314 311 312 311 310 310 312 312 312 311 310 310 311 312 314
315 317 319 322 322 323 326 323 322 322 321 318 317 316 314 314 314 318 317 318 316 316 318 319 318 318 316 314 313 314 314 311 311 313 313 312 311 310 310 310 310 311 312 309 309 310 312 313 313
316 318 318 318 320 324 322 321 323 324 318 316 315 313 314 315 316 318 319 318 318 318 318 320 320 319 316 316 315 315 315 313 312 312 312 312 310 311 310 310 310 311 312 311 308 309 312 311 310
317 313 315 315 317 321 323 317 319 324 319 316 315 314 315 315 317 316 317 317 317 319 316 318 320 318 317 316 315 315 316 316 312 312 314 313 311 312 311 310 309 309 312 311 309 311 312 310 310
310 310 303 311 315 323 319 308 320 323 320 316 315 315 315 315 315 316 317 317 317 316 316 315 322 321 318 317 317 316 317 317 316 314 313 314 313 313 310 310 310 310 310 310 309 309 310 308 309
305 298 304 310 317 318 316 311 321 322 320 317 315 315 317 315 316 317 318 318 318 316 316 315 316 320 320 318 317 317 319 318 321 314 312 313 314 315 311 311 311 309 309 310 309 310 308 308 309
299 302 305 306 312 314 312 314 318 321 320 318 317 315 316 316 317 319 318 319 319 317 317 316 317 320 321 320 321 319 319 317 312 312 313 314 314 316 313 311 311 310 309 309 308 307 308 309 308
307 307 304 307 313 310 310 314 317 319 319 317 317 317 318 318 321 320 320 320 319 319 318 316 317 318 320 323 316 315 314 315 313 313 315 314 314 314 312 310 312 310 309 309 307 308 307 307 308
309 307 305 308 313 310 311 312 317 319 318 319 318 318 318 319 319 320 320 320 318 318 317 316 317 318 320 317 316 315 314 315 314 313 314 314 314 313 313 311 310 310 310 308 306 307 306 306 308
306 305 305 304 313 314 311 308 311 317 318 319 322 321 320 319 319 319 320 319 319 318 319 319 318 319 320 318 316 316 314 314 312 312 311 313 314 315 314 312 311 311 309 308 307 307 306 305 307
300 308 308 306 302 297 309 295 307 310 311 316 318 319 319 319 320 320 319 318 319 320 321 320 320 318 318 316 315 312 310 309 311 311 311 312 314 315 315 314 314 312 310 308 308 309 307 306 306
304 310 305 305 298 296 301 297 300 306 305 309 312 315 314 315 315 316 318 319 320 322 320 320 318 318 317 317 315 313 311 311 312 311 311 311 312 315 315 314 313 311 310 309 308 308 307 306 306
312 307 302 297 293 288 295 298 296 299 305 309 306 311 311 312 315 315 316 318 318 318 320 318 316 316 315 313 312 311 310 310 308 310 309 312 313 312 314 314 312 312 310 309 309 308 307 307 307
306 297 291 290 289 286 300 297 297 305 310 308 306 308 308 312 313 312 315 316 318 318 316 316 315 313 313 312 313 311 310 309 307 309 310 310 311 311 313 313 311 311 310 310 309 308 307 308 307
303 299 292 285 285 288 300 294 298 309 311 309 308 306 307 309 308 308 311 312 315 312 313 314 313 312 311 311 311 311 310 310 309 309 309 309 310 312 313 314 312 312 311 310 310 311 308 311 308
305 297 299 291 290 287 293 298 304 308 309 310 306 305 305 305 306 307 309 307 305 305 309 311 312 310 305 310 311 310 309 308 308 308 307 308 310 313 314 314 312 313 312 313 312 311 307 306 306
304 304 295 292 286 284 291 294 295 301 305 307 302 303 304 302 305 303 303 302 301 302 303 304 302 302 308 310 309 309 310 310 308 307 306 307 307 309 311 313 312 312 312 312 311 309 308 307 306
299 296 295 294 292 286 285 290 302 302 305 302 302 303 303 299 299 301 300 300 301 301 301 302 302 306 306 307 305 307 307 310 307 306 307 307 307 308 310 312 312 312 311 313 310 309 312 308 309
301 298 296 291 289 289 288 289 302 303 303 303 302 303 304 298 298 299 298 299 299 301 301 302 302 302 302 302 303 303 303 305 304 305 307 308 308 310 310 312 310 311 311 311 310 312 313 309 310
Wind_Speed
4 3 2 4 6 7 5 5 4 4 4 3 3 5 6 6 2 2 4 4 7 5 2 5 9 10 10 9 10 10 10 10 10 11 11 11 11 10 10 10 10 9 10 8 9 10 10 10 9
3 2 4 3 6 4 3 4 5 0 6 8 8 5 5 4 3 6 4 5 5 4 4 4 8 9 9 10 10 10 10 10 10 11 11 11 11 11 10 11 11 10 9 8 7 8 8 8 8
2 4 4 5 4 5 4 5 4 10 10 2 4 5 3 2 6 5 5 7 6 5 4 4 8 8 9 9 9 9 9 9 9 10 10 9 10 9 9 9 9 10 10 10 9 9 8 8 9
1 5 4 5 4 2 2 10 6 10 4 6 5 5 4 3 6 6 9 8 6 4 4 7 8 9 8 7 7 6 6 6 7 7 7 7 8 7 7 7 7 8 9 9 8 8 9 9 9
4 3 5 4 3 2 1 12 12 5 5 2 2 3 3 3 8 11 10 9 7 6 5 4 7 7 6 5 5 4 4 4 4 4 4 5 5 5 5 6 5 9 10 11 10 10 10 11 11
4 3 6 1 4 2 4 5 5 3 4 5 5 4 2 3 10 8 8 6 5 5 4 3 6 5 4 3 3 2 2 2 2 3 5 4 4 4 4 5 6 9 11 12 11 10 11 11 12
6 4 3 1 3 1 5 3 5 6 6 3 8 5 1 3 5 9 6 5 4 4 4 1 2 1 1 1 2 1 1 1 1 3 3 5 5 4 6 7 8 10 10 10 11 12 12 12 11
4 5 3 1 3 3 6 4 5 4 3 8 7 6 6 6 7 6 6 5 4 3 3 1 2 2 3 2 3 2 2 3 0 1 3 7 10 6 9 7 10 13 10 11 12 11 12 10 11
4 4 0 2 2 3 6 6 2 5 8 2 2 5 6 14 11 6 4 3 3 2 1 1 2 3 4 2 3 5 6 4 3 4 5 4 3 4 6 6 11 5 9 10 8 10 11 7 7
4 4 4 3 3 5 6 4 8 5 3 3 3 6 15 15 11 10 7 6 4 3 2 3 1 3 5 1 3 4 2 1 2 2 2 1 2 1 3 6 10 11 8 7 7 6 9 8 4
3 4 2 3 8 9 6 4 4 11 4 7 11 9 15 13 10 9 5 5 5 5 3 4 4 4 5 2 2 2 1 2 2 3 3 1 2 3 3 3 4 4 8 3 5 5 3 5 4
4 1 4 3 3 6 8 5 4 1 3 9 6 10 8 12 10 10 9 7 7 6 6 6 5 5 4 3 2 1 1 1 2 3 4 1 1 1 2 2 3 4 2 4 4 3 5 5 4
4 2 1 3 5 5 7 4 5 4 10 13 10 7 8 7 6 5 6 5 6 7 6 6 4 4 3 3 1 0 1 1 3 3 4 2 3 2 1 2 2 3 2 2 4 5 4 5 5
7 7 2 4 2 3 8 4 4 2 10 12 11 8 8 9 9 6 8 7 7 7 7 5 4 2 2 2 2 3 2 3 2 3 4 5 3 3 3 3 3 3 1 2 3 4 3 4 3
2 3 4 5 7 6 9 1 3 10 8 6 8 8 6 8 7 9 8 8 9 6 5 5 4 5 4 4 4 3 4 2 3 3 5 6 6 6 6 3 3 4 2 4 3 3 3 4 3
5 3 4 6 8 6 6 3 6 11 14 12 8 7 6 6 7 7 7 7 7 4 5 6 5 4 5 6 5 4 4 3 4 3 4 6 7 7 4 4 5 3 3 1 2 2 2 3 3
3 4 2 4 9 7 6 5 13 9 13 12 10 7 7 7 9 9 9 8 6 7 7 8 4 5 7 7 5 4 6 4 4 4 4 7 7 5 5 4 5 4 3 2 1 1 1 3 4
6 4 5 7 6 1 5 5 16 12 9 12 10 7 8 9 15 8 8 7 7 7 7 5 5 5 5 3 3 4 4 4 3 4 4 6 5 7 5 4 5 3 3 3 1 2 2 2 4
6 5 4 2 6 7 7 10 17 16 11 8 10 12 10 13 13 7 7 8 7 7 7 7 7 8 4 2 3 3 4 3 3 3 5 6 5 6 6 4 4 4 4 4 2 2 2 3 1
7 5 8 4 3 4 6 4 10 13 11 11 10 9 11 10 8 7 7 7 8 8 7 7 8 7 6 2 4 3 3 4 4 3 5 6 6 6 5 5 5 4 3 4 3 3 2 2 1
3 6 6 7 5 4 7 1 3 5 5 5 8 10 7 12 10 7 7 8 6 7 7 7 8 8 7 5 2 3 2 3 3 2 3 4 6 7 7 6 5 5 3 4 4 4 4 3 2
5 9 6 7 6 4 3 4 5 6 7 6 6 9 10 10 7 7 7 7 7 6 6 6 5 5 4 2 4 4 3 4 3 2 3 5 7 6 6 6 6 6 4 5 4 4 5 3 4
10 7 3 3 3 5 0 2 4 3 5 6 6 4 7 8 7 6 4 4 5 5 2 1 2 5 6 5 5 4 5 5 4 4 6 6 6 6 6 6 6 6 4 5 5 4 5 4 3
2 1 2 3 3 4 3 5 4 5 6 4 2 3 6 6 5 5 4 5 4 3 4 3 3 4 4 5 6 6 7 7 5 5 5 6 5 6 7 6 6 6 5 6 5 5 6 5 4
2 6 4 5 5 6 2 1 6 5 5 8 8 8 7 7 7 7 8 7 6 6 5 4 5 6 6 6 6 5 7 7 7 8 5 7 6 5 7 4 6 4 6 6 5 5 6 5 4
1 6 7 6 4 4 3 4 4 4 5 5 6 6 4 7 6 6 6 5 5 7 7 6 7 8 7 6 7 6 6 4 5 6 6 6 6 6 5 5 6 6 6 5 6 4 4 4 5
1 4 4 5 2 2 2 5 5 1 3 5 5 6 7 5 5 7 6 7 7 7 8 8 9 8 6 7 5 6 5 6 6 8 6 4 7 7 6 7 5 6 7 6 5 4 6 5 5
3 3 2 3 2 5 2 4 6 7 9 5 7 9 8 6 7 6 6 7 7 8 8 7 4 7 6 5 5 5 7 6 6 6 8 7 7 6 7 8 7 6 6 5 6 5 5 6 5
5 3 5 5 3 3 2 7 6 9 11 10 9 8 8 8 8 7 6 7 6 2 1 3 4 4 3 4 5 6 7 7 6 6 7 8 7 8 8 9 7 7 6 6 6 5 5 6 6
3 2 4 5 3 1 3 8 2 9 8 10 9 9 7 6 7 5 5 3 0 2 1 3 2 3 4 5 5 7 7 6 7 7 8 9 9 8 9 8 6 5 5 5 5 5 5 6 5
Wind_Direction
118 177 122 42 56 58 321 303 305 63 43 358 24 63 85 31 54 201 30 115 102 92 86 98 100 93 96 97 99 98 84 80 77 76 69 72 67 59 51 45 40 35 39 32 29 27 18 20 18
128 156 44 95 82 80 261 273 248 305 124 127 80 82 54 72 63 111 93 103 94 110 80 100 114 110 105 97 91 86 86 81 77 73 68 64 60 53 45 42 36 32 28 21 17 16 9 7 3
178 36 72 88 107 158 191 169 137 143 172 87 106 44 66 71 96 138 119 123 118 130 146 162 123 110 103 99 96 92 87 84 77 70 64 60 57 53 49 42 35 24 15 11 3 2 356 354 351
125 18 32 76 114 223 221 155 149 153 126 66 98 68 88 352 151 137 129 130 132 151 168 143 133 121 110 108 102 91 82 77 73 69 64 58 46 33 35 33 28 12 356 345 339 341 344 344 340
34 59 57 50 312 269 140 164 165 148 115 106 106 115 48 34 105 126 134 145 148 162 165 150 137 128 123 119 99 89 87 69 66 57 50 45 33 31 22 11 10 357 356 344 333 328 327 327 327
52 95 59 4 293 161 104 145 107 70 101 128 89 86 23 95 128 143 148 148 162 160 163 183 157 144 128 106 95 88 78 93 66 29 17 10 355 359 340 327 329 335 346 346 342 339 334 328 324
114 80 164 236 264 271 145 116 114 120 144 149 139 96 96 173 160 154 150 142 152 145 149 42 34 48 138 140 77 67 73 273 36 31 1 345 319 307 299 295 309 309 324 332 332 333 333 331 331
96 87 150 259 198 180 159 100 124 105 47 104 160 163 180 202 162 145 120 137 132 130 148 110 1 322 292 338 349 299 269 252 23 12 327 35 24 1 333 285 295 285 298 322 320 326 317 314 322
121 72 296 280 241 156 146 120 28 38 127 52 249 151 170 150 146 128 112 101 95 171 173 239 282 272 243 269 278 279 257 252 318 0 351 41 22 22 33 351 0 343 327 350 33 24 16 358 342
81 99 222 239 301 169 170 138 140 111 147 34 49 79 121 140 156 152 160 171 160 182 168 139 102 110 142 292 8 301 258 354 302 349 313 16 356 18 59 17 16 7 353 337 2 9 10 10 355
164 158 114 233 288 175 154 127 123 133 211 191 172 140 137 141 151 149 158 156 165 167 141 171 180 105 107 85 35 26 190 234 248 232 247 239 3 2 17 2 359 340 352 343 342 340 10 354 336
118 169 175 253 38 125 162 125 90 299 265 117 133 128 125 145 153 155 162 156 158 161 174 187 174 141 121 115 94 51 289 347 265 243 239 191 285 331 355 352 336 335 348 335 337 328 325 327 329
127 265 105 223 260 131 111 82 124 61 81 98 99 98 127 130 124 121 137 158 153 166 191 189 178 140 133 94 73 294 271 241 258 251 233 195 229 245 285 317 317 337 350 349 336 322 331 348 349
158 185 138 344 166 110 110 152 78 103 111 118 126 142 146 150 168 155 175 177 181 184 190 194 196 194 193 198 227 253 282 229 214 252 234 226 216 237 249 252 280 305 262 302 325 310 326 328 343
52 88 352 257 186 160 121 9 115 149 108 132 159 167 173 190 186 193 195 191 196 207 204 206 226 221 239 264 255 249 249 262 268 253 248 216 217 222 226 230 251 260 264 307 333 308 303 322 321
38 47 198 188 176 176 136 200 153 148 151 163 191 181 191 224 224 229 215 219 216 228 216 233 256 216 248 250 254 264 277 280 269 260 240 218 234 229 217 232 257 257 275 291 302 305 300 294 322
41 261 258 311 202 148 185 137 169 170 179 181 183 196 186 221 240 230 221 213 214 222 238 241 252 271 286 265 274 274 273 274 263 274 238 232 228 231 240 233 254 263 277 294 253 302 206 303 303
206 228 255 235 169 118 167 134 170 184 189 207 190 201 207 218 232 228 225 209 204 224 241 261 271 254 247 253 282 283 280 273 261 269 258 245 222 214 213 238 254 262 277 280 280 238 291 245 279
186 186 246 238 189 156 195 155 184 183 196 217 213 210 201 225 239 209 220 206 195 220 228 231 244 256 242 255 269 283 257 280 279 278 279 255 231 222 216 231 242 225 230 241 254 280 255 295 296
140 221 236 268 211 128 150 170 196 193 203 211 218 223 227 233 240 216 208 208 205 214 221 234 239 248 235 195 227 217 243 255 256 273 285 255 244 249 235 234 241 234 222 239 244 219 243 265 252
205 186 249 214 107 36 115 281 217 224 233 245 218 224 216 232 237 221 205 214 208 213 217 227 236 241 245 231 310 292 307 291 316 286 281 266 249 247 240 239 237 234 213 229 219 214 192 233 276
185 223 229 171 131 227 164 251 233 194 239 243 232 232 221 218 224 225 200 211 210 230 225 235 260 273 276 251 240 234 244 273 246 250 260 286 264 250 240 238 239 236 217 225 227 212 206 172 238
231 174 226 321 186 103 101 85 258 130 238 250 271 217 176 200 203 221 204 179 199 184 181 263 288 261 246 247 238 249 260 241 260 271 277 269 272 254 247 238 238 225 218 230 229 238 228 194 210
50 128 71 84 86 14 199 168 251 185 195 193 221 222 165 158 167 146 165 145 139 113 146 173 201 262 268 259 254 242 260 280 293 289 278 273 265 261 247 247 220 218 224 221 232 235 236 224 214
103 59 341 346 358 228 208 137 247 223 219 177 180 184 179 175 172 169 167 165 174 179 191 199 205 249 255 260 272 254 252 268 274 280 283 292 282 266 264 250 246 212 222 224 227 238 236 230 212
123 155 154 235 223 266 330 260 272 277 201 173 176 180 167 167 172 160 163 164 174 204 197 200 211 237 251 254 256 251 262 263 267 267 277 279 274 261 256 252 254 249 231 227 228 216 229 221 228
260 240 213 125 58 76 286 307 306 190 238 170 181 158 189 191 194 194 176 185 196 215 203 205 218 238 259 243 243 261 265 267 265 277 276 267 277 277 261 257 248 245 250 230 234 229 226 215 239
191 162 291 22 257 269 265 273 239 230 230 210 179 189 200 202 193 170 180 186 202 207 207 212 216 227 230 227 244 253 259 255 274 293 287 287 277 263 265 252 229 239 237 235 238 228 225 222 250
333 326 49 110 122 187 265 259 209 222 208 190 191 197 191 184 182 187 200 215 225 318 177 200 223 219 261 279 293 281 296 294 296 284 284 280 275 275 269 252 230 221 229 230 228 238 241 234 255
216 207 133 124 250 227 164 269 268 240 184 163 187 197 200 180 188 215 222 223 49 182 229 236 339 316 285 280 286 280 290 298 295 293 285 287 290 285 268 250 214 236 234 244 250 249 232 230 241